Regional Weather Roundup
Issued by NWS

Home | Current Version | Previous Version | Text Only | Print | Product List | Glossary On
Versions: 1 2 3 4 5 6 7 8 9 10 11 12 13 14 15 16 17 18 19 20 21 22 23 24 25 26 27 28 29 30 31 32 33 34 35 36 37 38 39 40 41 42 43 44 45 46 47 48 49
000
ASUS45 KCYS 031310
RWRWY

WYOMING REGIONAL WEATHER ROUNDUP
NATIONAL WEATHER SERVICE CHEYENNE WY
700 AM MDT FRI JUL 03 2015

NOTE:  "FAIR" INDICATES FEW OR NO CLOUDS BELOW 12,000 FEET
WITH NO SIGNIFICANT WEATHER AND/OR OBSTRUCTIONS TO VISIBILITY.

WYZ001-031400-
YELLOWSTONE NATIONAL PARK

CITY           SKY/WX    TMP DP  RH WIND       PRES   REMARKS
LK YELLOWSTONE   N/A     46  41  82 CALM      30.32S
W YELLOWSTONE  NOT AVBL

$$
WYZ002>013-054>058-071-098>099-031400-
NORTHERN WYOMING

CITY           SKY/WX    TMP DP  RH WIND       PRES   REMARKS
JACKSON        FAIR      50  46  87 CALM      30.24S
CODY           FAIR      64  50  59 SW5       30.13S
GREYBULL       FAIR      65  50  58 CALM      30.07R
WORLAND        FAIR      66  54  65 S6        30.08S
SHERIDAN       FAIR      60  52  74 CALM      30.08S
BUFFALO        FAIR      62  50  64 SW5       30.12F
GILLETTE       FAIR      61  54  77 S8        30.11S
HULETT         FAIR      61  55  82 S3        30.13R
NEWCASTLE      FAIR      61  55  82 MISG      30.14F

$$
WYZ014>020-022>026-101>103-031400-
CENTRAL WYOMING

CITY           SKY/WX    TMP DP  RH WIND       PRES   REMARKS
BIG PINEY      FAIR      51  43  74 SW3       30.29S
PINEDALE       FAIR      50  43  76 W3        30.30F
DUBOIS         FAIR      54  46  76 NW9       30.29S
LANDER         FAIR      60  52  74 W5        30.20R
RIVERTON       FAIR      63  53  70 NW6       30.19R
CASPER         FAIR      59  53  80 CALM      30.17S
DOUGLAS        FAIR      60  56  86 E7        30.17S

$$
WYZ021-027>030-104>119-031400-
SOUTHERN WYOMING

CITY           SKY/WX    TMP DP  RH WIND       PRES   REMARKS
EVANSTON       FAIR      59  45  59 E6        30.27R
KEMMERER       FAIR      57  45  62 N10       30.30R
FORT BRIDGER   SUNNY     59  48  67 W3        30.30S
ROCK SPRINGS   FAIR      59  51  75 E5        30.26R
DIXON          FAIR      56  45  67 CALM      30.26R
RAWLINS        FAIR      56  54  93 E8        30.27R
SARATOGA       FAIR      50  46  87 CALM      30.29S
LARAMIE        FAIR      52  48  86 S6        30.29S
CHEYENNE       FAIR      58  54  86 SE5       30.25R
TORRINGTON     FAIR      62  59  90 CALM      30.14R
PINE BLUFFS    PTSUNNY   61  55  82 CALM      30.20F

$$



USA.gov is the U.S. government's official web portal to all federal, state and local government web resources and services.